EW1690 Weather Reports


time (UTC)temp
C
wind
direction
speed
KPH
gust
KPH
rain 1hr
cm
rain 24hr
cm
rain mn
cm
humidity
%
barometer
mb
20260906225556 23 128 3.2 14.5 0.00 0.00 0.00 20 1004.0
20260906225056 23 128 3.2 14.5 0.00 0.00 0.00 19 1004.1
20260906224556 23 148 3.2 14.5 0.00 0.00 0.00 19 1004.1
20260906224057 23 138 1.6 14.5 0.00 0.00 0.00 20 1004.1
20260906223554 23 127 3.2 11.3 0.00 0.00 0.00 20 1004.2
20260906223055 23 134 0.0 12.9 0.00 0.00 0.00 19 1004.2
20260906222554 23 120 4.8 17.7 0.00 0.00 0.00 19 1004.3
20260906222053 23 120 6.4 20.9 0.00 0.00 0.00 19 1004.3
20260906221559 23 132 3.2 14.5 0.00 0.00 0.00 19 1004.4
20260906221051 23 134 4.8 14.5 0.00 0.00 0.00 18 1004.6
20260906220550 23 263 4.8 14.5 0.00 0.00 0.00 18 1004.7
20260906220050 23 125 4.8 17.7 0.00 0.00 0.00 15 1004.8
20260906215548 23 139 4.8 17.7 0.00 0.00 0.00 14 1004.8
20260906215048 23 162 4.8 16.1 0.00 0.00 0.00 13 1005.0
20260906214547 23 120 4.8 27.4 0.00 0.00 0.00 14 1005.1
20260906214047 23 134 8.0 27.4 0.00 0.00 0.00 13 1005.2
20260906213546 23 154 0.0 19.3 0.00 0.00 0.00 12 1005.2
20260906213056 23 119 3.2 12.9 0.00 0.00 0.00 12 1005.3
20260906212544 23 147 1.6 17.7 0.00 0.00 0.00 12 1005.4
20260906212044 23 146 4.8 19.3 0.00 0.00 0.00 14 1005.4
20260906211543 23 180 3.2 17.7 0.00 0.00 0.00 15 1005.4
20260906211042 23 142 1.6 14.5 0.00 0.00 0.00 17 1005.5
20260906210541 23 139 4.8 17.7 0.00 0.00 0.00 18 1005.5
20260906210043 23 145 6.4 17.7 0.00 0.00 0.00 18 1005.7
20260906205540 23 140 4.8 17.7 0.00 0.00 0.00 19 1005.6
20260906205038 23 136 4.8 24.1 0.00 0.00 0.00 19 1005.7
20260906204556 23 152 1.6 19.3 0.00 0.00 0.00 19 1005.8
20260906204037 23 145 6.4 19.3 0.00 0.00 0.00 19 1005.8
20260906203537 23 297 4.8 17.7 0.00 0.00 0.00 18 1005.9
20260906203037 23 119 8.0 17.7 0.00 0.00 0.00 18 1005.9
20260906202537 23 147 4.8 14.5 0.00 0.00 0.00 20 1005.8
20260906202036 23 151 1.6 14.5 0.00 0.00 0.00 19 1006.0
20260906201538 23 126 0.0 14.5 0.00 0.00 0.00 18 1006.0
20260906201034 23 128 6.4 14.5 0.00 0.00 0.00 19 1006.0
20260906200534 23 155 3.2 17.7 0.00 0.00 0.00 20 1006.0
20260906200034 23 175 4.8 20.9 0.00 0.00 0.00 20 1006.1
20260906195534 23 171 8.0 20.9 0.00 0.00 0.00 20 1006.2
20260906195032 23 134 4.8 16.1 0.00 0.00 0.00 19 1006.1
20260906194532 23 258 3.2 17.7 0.00 0.00 0.00 20 1006.2
20260906194032 23 161 3.2 22.5 0.00 0.00 0.00 21 1006.2
20260906193530 23 141 4.8 22.5 0.00 0.00 0.00 20 1006.1
20260906193029 23 146 3.2 14.5 0.00 0.00 0.00 20 1006.1
20260906192629 23 272 1.6 16.1 0.00 0.00 0.00 21 1006.0
20260906192029 22 126 6.4 16.1 0.00 0.00 0.00 21 1006.1
20260906191530 22 182 3.2 12.9 0.00 0.00 0.00 21 1006.1
20260906191028 22 315 3.2 9.7 0.00 0.00 0.00 26 1006.2
20260906190529 22 237 1.6 20.9 0.00 0.00 0.00 25 1006.1
20260906190027 22 117 4.8 20.9 0.00 0.00 0.00 24 1006.2
20260906185526 23 118 8.0 19.3 0.00 0.00 0.00 19 1006.2
20260906185024 22 139 6.4 16.1 0.00 0.00 0.00 22 1006.2
20260906184525 22 138 0.0 14.5 0.00 0.00 0.00 23 1006.2
20260906184021 22 167 3.2 9.7 0.00 0.00 0.00 26 1006.2
20260906183520 22 169 3.2 19.3 0.00 0.00 0.00 26 1006.4
20260906183020 22 257 4.8 19.3 0.00 0.00 0.00 25 1006.4
20260906182519 22 157 1.6 14.5 0.00 0.00 0.00 25 1006.5
20260906182018 22 152 3.2 9.7 0.00 0.00 0.00 26 1006.4
20260906181517 22 304 3.2 9.7 0.00 0.00 0.00 26 1006.6
20260906181016 22 173 1.6 9.7 0.00 0.00 0.00 28 1006.6
20260906180518 22 300 1.6 6.4 0.00 0.00 0.00 28 1006.6
20260906180016 22 157 1.6 8.0 0.00 0.00 0.00 28 1006.8
20260906175515 22 317 1.6 6.4 0.00 0.00 0.00 28 1006.9
20260906175011 22 133 1.6 6.4 0.00 0.00 0.00 29 1007.0
20260906174511 21 338 0.0 6.4 0.00 0.00 0.00 30 1007.0
20260906174010 21 148 1.6 8.0 0.00 0.00 0.00 30 1007.2
20260906173510 21 155 1.6 6.4 0.00 0.00 0.00 32 1007.2
20260906173009 21 143 0.0 11.3 0.00 0.00 0.00 32 1007.2
20260906172507 21 191 3.2 11.3 0.00 0.00 0.00 33 1007.3
20260906172007 21 248 1.6 14.5 0.00 0.00 0.00 30 1007.4
20260906171507 21 157 4.8 14.5 0.00 0.00 0.00 30 1007.5
20260906171006 21 266 1.6 14.5 0.00 0.00 0.00 30 1007.5
20260906170505 21 162 1.6 14.5 0.00 0.00 0.00 32 1007.4
20260906170005 21 143 3.2 14.5 0.00 0.00 0.00 33 1007.5
20260906165504 21 140 1.6 9.7 0.00 0.00 0.00 34 1007.5
20260906165002 20 134 1.6 11.3 0.00 0.00 0.00 37 1007.6
20260906164501 20 278 1.6 11.3 0.00 0.00 0.00 37 1007.5
20260906164100 20 300 1.6 8.0 0.00 0.00 0.00 37 1007.5
20260906163559 20 281 1.6 12.9 0.00 0.00 0.00 39 1007.7
20260906163108 19 132 3.2 11.3 0.00 0.00 0.00 39 1007.7
20260906162558 19 178 0.0 11.3 0.00 0.00 0.00 42 1007.7
20260906162056 18 142 3.2 9.7 0.00 0.00 0.00 43 1007.6
20260906161556 18 285 1.6 17.7 0.00 0.00 0.00 42 1007.7
20260906161054 18 114 3.2 17.7 0.00 0.00 0.00 43 1007.6
20260906160555 18 125 1.6 6.4 0.00 0.00 0.00 45 1007.5
20260906160052 17 159 0.0 4.8 0.00 0.00 0.00 49 1007.6
20260906155551 17 303 0.0 6.4 0.00 0.00 0.00 51 1007.6
20260906155048 17 291 0.0 4.8 0.00 0.00 0.00 52 1007.7
20260906154552 16 261 0.0 3.2 0.00 0.00 0.00 53 1007.7
20260906154045 16 281 0.0 3.2 0.00 0.00 0.00 54 1007.6
20260906153547 16 281 0.0 3.2 0.00 0.00 0.00 54 1007.7
20260906153043 15 275 0.0 4.8 0.00 0.00 0.00 55 1007.7
20260906152545 15 279 0.0 4.8 0.00 0.00 0.00 56 1007.6
20260906152042 15 277 0.0 0.0 0.00 0.00 0.00 56 1007.6
20260906151540 15 277 0.0 0.0 0.00 0.00 0.00 57 1007.7
20260906151037 14 277 0.0 0.0 0.00 0.00 0.00 58 1007.7
20260906150535 13 277 0.0 0.0 0.00 0.00 0.00 60 1007.7
20260906150035 13 277 0.0 0.0 0.00 0.00 0.00 61 1007.8
20260906145533 13 277 0.0 0.0 0.00 0.00 0.00 61 1007.7
20260906145032 13 277 0.0 0.0 0.00 0.00 0.00 62 1007.8
20260906144533 12 277 0.0 0.0 0.00 0.00 0.00 64 1007.7
20260906144028 12 277 0.0 0.0 0.00 0.00 0.00 66 1007.7
20260906143526 12 277 0.0 0.0 0.00 0.00 0.00 68 1007.7
20260906143033 11 277 0.0 0.0 0.00 0.00 0.00 70 1007.7
20260906142524 11 277 0.0 0.0 0.00 0.00 0.00 71 1007.8
20260906142023 10 277 0.0 0.0 0.00 0.00 0.00 72 1007.8
20260906141529 10 277 0.0 0.0 0.00 0.00 0.00 73 1007.8
20260906141022 10 277 0.0 0.0 0.00 0.00 0.00 74 1007.8
20260906140521 9 277 0.0 0.0 0.00 0.00 0.00 75 1007.6
20260906140031 9 277 0.0 0.0 0.00 0.00 0.00 75 1007.5
20260906135526 9 277 0.0 0.0 0.00 0.00 0.00 76 1007.5
20260906135024 9 277 0.0 0.0 0.00 0.00 0.00 76 1007.6
20260906134521 9 277 0.0 0.0 0.00 0.00 0.00 76 1007.6
20260906134023 9 277 0.0 0.0 0.00 0.00 0.00 75 1007.5
20260906133520 9 277 0.0 0.0 0.00 0.00 0.00 75 1007.3
20260906133020 9 277 0.0 0.0 0.00 0.00 0.00 77 1007.2
20260906132522 9 277 0.0 0.0 0.00 0.00 0.00 76 1007.2
20260906132021 9 277 0.0 0.0 0.00 0.00 0.00 74 1007.3
20260906131532 9 277 0.0 0.0 0.00 0.00 0.00 74 1007.2
20260906131020 8 277 0.0 0.0 0.00 0.00 0.00 75 1007.2
20260906130520 8 277 0.0 0.0 0.00 0.00 0.00 75 1007.1
20260906130019 8 277 0.0 0.0 0.00 0.00 0.00 76 1007.1
20260906125520 8 277 0.0 0.0 0.00 0.00 0.00 75 1007.2
20260906125020 8 277 0.0 0.0 0.00 0.00 0.00 75 1007.2
20260906124518 8 277 0.0 0.0 0.00 0.00 0.00 75 1007.1
20260906124019 8 277 0.0 0.0 0.00 0.00 0.00 74 1007.0
20260906123518 9 277 0.0 0.0 0.00 0.00 0.00 73 1007.0
20260906123017 9 277 0.0 0.0 0.00 0.00 0.00 74 1006.8
20260906122517 9 277 0.0 0.0 0.00 0.00 0.00 74 1006.8
20260906122017 9 277 0.0 0.0 0.00 0.00 0.00 74 1007.0
20260906121516 8 277 0.0 0.0 0.00 0.00 0.00 75 1006.9
20260906121016 8 277 0.0 0.0 0.00 0.00 0.00 75 1006.9
20260906120516 8 277 0.0 0.0 0.00 0.00 0.00 75 1007.0
20260906120014 8 277 0.0 0.0 0.00 0.00 0.00 75 1007.1
20260906115515 8 277 0.0 0.0 0.00 0.00 0.00 75 1007.2
20260906115014 8 277 0.0 0.0 0.00 0.00 0.00 74 1007.2
20260906114513 8 277 0.0 0.0 0.00 0.00 0.00 74 1007.2
20260906114011 9 277 0.0 0.0 0.00 0.00 0.00 74 1007.2
20260906113511 9 277 0.0 0.0 0.00 0.00 0.00 74 1007.3
20260906113017 9 277 0.0 0.0 0.00 0.00 0.00 73 1007.4
20260906112511 9 277 0.0 0.0 0.00 0.00 0.00 73 1007.4
20260906112011 9 277 0.0 0.0 0.00 0.00 0.00 73 1007.3
20260906111511 9 277 0.0 0.0 0.00 0.00 0.00 73 1007.4
20260906111010 9 277 0.0 0.0 0.00 0.00 0.00 74 1007.3
20260906110510 8 277 0.0 0.0 0.00 0.00 0.00 74 1007.4
20260906110010 8 277 0.0 0.0 0.00 0.00 0.00 75 1007.5
20260906105509 8 277 0.0 0.0 0.00 0.00 0.00 75 1007.5
20260906105010 8 277 0.0 0.0 0.00 0.00 0.00 76 1007.4
20260906104510 8 277 0.0 0.0 0.00 0.00 0.00 76 1007.3
20260906104008 8 277 0.0 0.0 0.00 0.00 0.00 75 1007.4
20260906103507 8 277 0.0 0.0 0.00 0.00 0.00 75 1007.5
20260906103008 8 277 0.0 0.0 0.00 0.00 0.00 75 1007.5
20260906102507 9 277 0.0 0.0 0.00 0.00 0.00 74 1007.5
20260906102007 9 277 0.0 0.0 0.00 0.00 0.00 74 1007.4
20260906101505 9 277 0.0 0.0 0.00 0.00 0.00 74 1007.4
20260906101004 9 277 0.0 0.0 0.00 0.00 0.00 74 1007.4
20260906100505 9 277 0.0 0.0 0.00 0.00 0.00 73 1007.4
20260906100005 9 277 0.0 0.0 0.00 0.00 0.00 74 1007.5
20260906095503 9 277 0.0 0.0 0.00 0.00 0.00 74 1007.4
20260906095004 9 277 0.0 0.0 0.00 0.00 0.00 75 1007.3
20260906094506 9 277 0.0 0.0 0.00 0.00 0.00 75 1007.3
20260906094002 9 277 0.0 0.0 0.00 0.00 0.00 75 1007.4
20260906093503 9 277 0.0 0.0 0.00 0.00 0.00 75 1007.4
20260906093001 9 277 0.0 0.0 0.00 0.00 0.00 75 1007.5
20260906092501 9 277 0.0 0.0 0.00 0.00 0.00 75 1007.5
20260906092001 9 277 0.0 0.0 0.00 0.00 0.00 75 1007.7
20260906091505 9 277 0.0 0.0 0.00 0.00 0.00 75 1007.7
20260906091001 9 277 0.0 0.0 0.00 0.00 0.00 75 1007.7
20260906090500 9 277 0.0 0.0 0.00 0.00 0.00 75 1007.7
20260906090001 9 277 0.0 0.0 0.00 0.00 0.00 75 1007.7
20260906085600 9 277 0.0 0.0 0.00 0.00 0.00 76 1007.7
20260906085103 9 277 0.0 0.0 0.00 0.00 0.00 76 1007.6
20260906084600 9 277 0.0 0.0 0.00 0.00 0.00 77 1007.6
20260906084059 9 277 0.0 0.0 0.00 0.00 0.00 77 1007.6
20260906083558 9 277 0.0 0.0 0.00 0.00 0.00 77 1007.6
20260906083101 10 277 0.0 0.0 0.00 0.00 0.00 76 1007.6
20260906082557 10 277 0.0 0.0 0.00 0.00 0.00 76 1007.5
20260906082100 10 277 0.0 0.0 0.00 0.00 0.00 76 1007.5
20260906081558 10 277 0.0 0.0 0.00 0.00 0.00 76 1007.4
20260906081056 10 277 0.0 0.0 0.00 0.00 0.00 75 1007.5
20260906080556 10 277 0.0 0.0 0.00 0.00 0.00 76 1007.5
20260906080107 10 277 0.0 0.0 0.00 0.00 0.00 76 1007.5
20260906075555 10 277 0.0 0.0 0.00 0.00 0.00 76 1007.5
20260906075055 10 277 0.0 0.0 0.00 0.00 0.00 77 1007.4
20260906074559 10 277 0.0 0.0 0.00 0.00 0.00 77 1007.5
20260906074055 10 277 0.0 0.0 0.00 0.00 0.00 77 1007.5
20260906073555 10 277 0.0 0.0 0.00 0.00 0.00 77 1007.6
20260906073054 10 277 0.0 0.0 0.00 0.00 0.00 77 1007.7
20260906072554 10 277 0.0 0.0 0.00 0.00 0.00 77 1007.8
20260906072055 10 277 0.0 0.0 0.00 0.00 0.00 76 1007.7
20260906071600 10 277 0.0 0.0 0.00 0.00 0.00 76 1007.7
20260906071053 10 277 0.0 0.0 0.00 0.00 0.00 75 1007.6
20260906070553 10 277 0.0 0.0 0.00 0.00 0.00 75 1007.5
20260906070052 10 277 0.0 0.0 0.00 0.00 0.00 75 1007.5
20260906065553 10 277 0.0 0.0 0.00 0.00 0.00 75 1007.5
20260906065052 10 277 0.0 0.0 0.00 0.00 0.00 76 1007.6
20260906064551 10 277 0.0 0.0 0.00 0.00 0.00 77 1007.6
20260906064051 10 277 0.0 0.0 0.00 0.00 0.00 77 1007.6
20260906063549 10 277 0.0 0.0 0.00 0.00 0.00 77 1007.6
20260906063055 10 277 0.0 0.0 0.00 0.00 0.00 78 1007.5
20260906062553 10 277 0.0 1.6 0.00 0.00 0.00 77 1007.4
20260906062047 10 277 0.0 1.6 0.00 0.00 0.00 77 1007.4
20260906061548 10 277 0.0 1.6 0.00 0.00 0.00 77 1007.4
20260906061045 10 276 0.0 1.6 0.00 0.00 0.00 77 1007.3
20260906060545 10 276 0.0 3.2 0.00 0.00 0.00 76 1007.3
20260906060044 11 275 0.0 3.2 0.00 0.00 0.00 76 1007.3
20260906055545 11 272 0.0 3.2 0.00 0.00 0.00 76 1007.3
20260906055044 11 272 0.0 4.8 0.00 0.00 0.00 76 1007.3
20260906054544 11 308 0.0 4.8 0.00 0.00 0.00 76 1007.4
20260906054044 11 312 0.0 1.6 0.00 0.00 0.00 76 1007.4
20260906053543 11 312 0.0 1.6 0.00 0.00 0.00 76 1007.3
20260906053050 11 346 0.0 1.6 0.00 0.00 0.00 76 1007.3
20260906052542 11 329 0.0 3.2 0.00 0.00 0.00 76 1007.3
20260906052042 11 303 0.0 3.2 0.00 0.00 0.00 75 1007.4
20260906051542 11 295 0.0 1.6 0.00 0.00 0.00 75 1007.4
20260906051042 11 309 0.0 6.4 0.00 0.00 0.00 76 1007.6
20260906050542 11 302 1.6 6.4 0.00 0.00 0.00 76 1007.5
20260906050043 11 297 0.0 11.3 0.00 0.00 0.00 76 1007.5
20260906045545 11 311 0.0 11.3 0.00 0.00 0.00 76 1007.6
20260906045045 11 310 0.0 8.0 0.00 0.00 0.00 76 1007.5
20260906044542 11 304 0.0 6.4 0.00 0.00 0.00 76 1007.5
20260906044041 11 332 1.6 6.4 0.00 0.00 0.00 76 1007.6
20260906043540 11 298 0.0 6.4 0.00 0.00 0.00 76 1007.6
20260906043040 11 329 0.0 4.8 0.00 0.00 0.00 76 1007.6
20260906042538 11 316 0.0 3.2 0.00 0.00 0.00 76 1007.7
20260906042038 11 301 0.0 8.0 0.00 0.00 0.00 76 1007.8
20260906041537 11 292 0.0 8.0 0.00 0.00 0.00 76 1007.8
20260906041037 11 311 0.0 6.4 0.00 0.00 0.00 75 1008.0
20260906040535 11 316 1.6 8.0 0.00 0.00 0.00 74 1007.8
20260906040038 11 319 1.6 8.0 0.00 0.00 0.00 73 1007.9
20260906035533 11 330 1.6 6.4 0.00 0.00 0.00 73 1008.0
20260906035034 11 302 0.0 6.4 0.00 0.00 0.00 71 1008.0
20260906034541 11 317 0.0 6.4 0.00 0.00 0.00 71 1008.0
20260906034031 12 302 0.0 4.8 0.00 0.00 0.00 70 1007.9
20260906033529 12 311 0.0 8.0 0.00 0.00 0.00 70 1008.0
20260906033030 12 329 1.6 6.4 0.00 0.00 0.00 68 1008.1
20260906032527 12 309 0.0 6.4 0.00 0.00 0.00 66 1007.9
20260906032026 13 315 0.0 8.0 0.00 0.00 0.00 64 1007.9
20260906031524 13 322 1.6 8.0 0.00 0.00 0.00 62 1007.8
20260906031023 14 300 1.6 8.0 0.00 0.00 0.00 60 1007.8
20260906030522 15 297 0.0 4.8 0.00 0.00 0.00 57 1007.5
20260906030020 15 296 0.0 4.8 0.00 0.00 0.00 55 1007.4
20260906025522 15 134 0.0 0.0 0.00 0.00 0.00 51 1007.2
20260906025025 15 134 0.0 0.0 0.00 0.00 0.00 49 1007.1
20260906024519 15 134 0.0 0.0 0.00 0.00 0.00 50 1007.0
20260906024019 15 134 0.0 0.0 0.00 0.00 0.00 51 1006.9
20260906023519 15 134 0.0 0.0 0.00 0.00 0.00 49 1006.7
20260906023018 15 134 0.0 0.0 0.00 0.00 0.00 48 1006.6
20260906022518 15 134 0.0 0.0 0.00 0.00 0.00 48 1006.7
20260906022021 15 134 0.0 0.0 0.00 0.00 0.00 49 1006.6
20260906021520 16 134 0.0 0.0 0.00 0.00 0.00 48 1006.4
20260906021017 16 134 0.0 0.0 0.00 0.00 0.00 48 1006.4
20260906020517 16 134 0.0 3.2 0.00 0.00 0.00 47 1006.3
20260906020018 16 134 0.0 4.8 0.00 0.00 0.00 47 1006.3
20260906015518 16 132 0.0 4.8 0.00 0.00 0.00 47 1006.2
20260906015017 16 128 0.0 4.8 0.00 0.00 0.00 46 1006.1
20260906014526 16 130 1.6 8.0 0.00 0.00 0.00 46 1006.0
20260906014020 16 121 1.6 8.0 0.00 0.00 0.00 46 1005.9
20260906013516 16 123 0.0 4.8 0.00 0.00 0.00 46 1005.9
20260906013017 16 129 0.0 3.2 0.00 0.00 0.00 45 1005.8
20260906012515 16 128 0.0 3.2 0.00 0.00 0.00 45 1005.8
20260906012116 17 129 0.0 3.2 0.00 0.00 0.00 44 1005.8
20260906011531 17 130 0.0 4.8 0.00 0.00 0.00 43 1005.8
20260906011015 17 129 0.0 11.3 0.00 0.00 0.00 42 1005.8
20260906010515 17 125 1.6 11.3 0.00 0.00 0.00 42 1005.7
20260906010015 17 128 0.0 0.0 0.00 0.00 0.00 41 1005.8
20260906005514 18 128 0.0 1.6 0.00 0.00 0.00 40 1005.8
20260906005018 18 120 0.0 14.5 0.00 0.00 0.00 40 1005.7
20260906004524 18 128 6.4 16.1 0.00 0.00 0.00 39 1005.7
20260906004015 18 117 3.2 16.1 0.00 0.00 0.00 38 1005.6
20260906003514 19 132 1.6 11.3 0.00 0.00 0.00 38 1005.6
20260906003014 19 129 3.2 11.3 0.00 0.00 0.00 38 1005.5
20260906002513 20 115 0.0 4.8 0.00 0.00 0.00 38 1005.5
20260906002012 20 171 0.0 4.8 0.00 0.00 0.00 37 1005.4
20260906001511 19 132 0.0 1.6 0.00 0.00 0.00 37 1005.4
20260906001010 19 132 0.0 1.6 0.00 0.00 0.00 38 1005.4
20260906000513 19 132 0.0 4.8 0.00 0.00 0.00 38 1005.4
20260906000010 19 132 0.0 4.8 0.00 0.00 0.00 37 1005.4
20260905235509 19 132 0.0 1.6 0.00 0.00 0.00 37 1005.4
20260905235010 19 132 0.0 1.6 0.00 0.00 0.00 36 1005.4
20260905234509 20 132 0.0 1.6 0.00 0.00 0.00 35 1005.4
20260905234009 20 132 0.0 0.0 0.00 0.00 0.00 34 1005.4
20260905233508 20 132 0.0 3.2 0.00 0.00 0.00 35 1005.5
20260905233007 20 132 0.0 3.2 0.00 0.00 0.00 34 1005.5
20260905232508 20 130 0.0 8.0 0.00 0.00 0.00 34 1005.5
20260905232009 20 129 1.6 8.0 0.00 0.00 0.00 34 1005.5
20260905231508 20 138 0.0 3.2 0.00 0.00 0.00 35 1005.5
20260905231007 20 141 0.0 3.2 0.00 0.00 0.00 35 1005.5
20260905230508 20 140 0.0 4.8 0.00 0.00 0.00 36 1005.6
20260905230007 20 112 0.0 4.8 0.00 0.00 0.00 36 1005.5